User: anonymous   Login
Location: Corralito
(10.2667°N, 66.9500°W)
Time: 10:54:51
(UTC+00:00)
Language:

BLOCK DM-SL R/B - Orbit

View from above orbital plane
View from above orbital plane
View from above satellite
View from above satellite

Ground track
Ground track

The orbit data is extracted from the following two-line orbital elements,

1 26725U 01012B   23267.04080310 -.00000264  00000-0 -55092-2 0  9999
2 26725   1.3615 357.3743 7052949 158.7025 204.4216  2.23578542183982
Epoch (UTC): 24 September 2023 00:58:45
Eccentricity: 0.7052949
inclination: 1.3615°
perigee height: 902 km
apogee height: 35750 km
right ascension of ascending node: 357.3743°
argument of perigee: 158.7025°
revolutions per day: 2.23578542
mean anomaly at epoch: 204.4216°
orbit number at epoch: 18398

The dashed part of the orbit path shows where the satellite is in the earth's shadow,  

DLR